,,PA_Meas_PMT16A,,PR_Meas_QMR101_102,,RH_Meas_QMH101,,SR_Meas_QMS101,,TA_Meas_QMH101,,GenWind,,GenWind,
time,status,PA,status,PR,status,RH,status,SR,status,TA,status,DirAvg,status,SpdAvg,
2013-10-13, 00:00:04,VALID,918.693,VALID,0,VALID,96.6268,VALID,0,VALID,19.3923,VALID,284,VALID,0,
2013-10-13, 00:01:05,VALID,918.65,VALID,0,VALID,96.6192,VALID,0,VALID,19.3728,VALID,284,VALID,0,
2013-10-13, 00:02:05,VALID,918.614,VALID,0,VALID,96.6268,VALID,0,VALID,19.3728,VALID,134,VALID,0,
2013-10-13, 00:03:05,VALID,918.606,VALID,0,VALID,96.6192,VALID,0,VALID,19.3323,VALID,132,VALID,0,
2013-10-13, 00:04:05,VALID,918.576,VALID,0,VALID,96.6192,VALID,0,VALID,19.3533,VALID,134,VALID,0,
2013-10-13, 00:05:05,VALID,918.559,VALID,0,VALID,96.6268,VALID,0,VALID,19.3533,VALID,130,VALID,0,
2013-10-13, 00:06:05,VALID,918.507,VALID,0,VALID,96.6344,VALID,0,VALID,19.3323,VALID,129,VALID,0,
2013-10-13, 00:07:05,VALID,918.493,VALID,0,VALID,96.6268,VALID,0,VALID,19.3338,VALID,125,VALID,0,
2013-10-13, 00:08:05,VALID,918.455,VALID,0,VALID,96.6649,VALID,0,VALID,19.3323,VALID,150,VALID,0,
2013-10-13, 00:09:05,VALID,918.456,VALID,0,VALID,96.6649,VALID,0,VALID,19.3323,VALID,139,VALID,0,
2013-10-13, 00:10:05,VALID,918.437,VALID,0,VALID,96.6573,VALID,0,VALID,19.3323,VALID,167,VALID,0,
2013-10-13, 00:11:05,VALID,918.43,VALID,0,VALID,96.6649,VALID,0,VALID,19.3728,VALID,167,VALID,0,
2013-10-13, 00:12:05,VALID,918.424,VALID,0,VALID,96.6878,VALID,0,VALID,19.3728,VALID,166,VALID,0,
2013-10-13, 00:13:05,VALID,918.38,VALID,0,VALID,96.6802,VALID,0,VALID,19.3728,VALID,143,VALID,0,
2013-10-13, 00:14:05,VALID,918.38,VALID,0,VALID,96.6954,VALID,0,VALID,19.3728,VALID,147,VALID,0,
2013-10-13, 00:15:05,VALID,918.383,VALID,0,VALID,96.703,VALID,0,VALID,19.3533,VALID,124,VALID,0,
2013-10-13, 00:16:05,VALID,918.376,VALID,0,VALID,96.6954,VALID,0,VALID,19.3533,VALID,141,VALID,0,
2013-10-13, 00:17:05,VALID,918.365,VALID,0,VALID,96.703,VALID,0,VALID,19.3128,VALID,128,VALID,0,
2013-10-13, 00:18:05,VALID,918.372,VALID,0,VALID,96.703,VALID,0,VALID,19.3338,VALID,117,VALID,0,
2013-10-13, 00:19:05,VALID,918.328,VALID,0,VALID,96.7183,VALID,0,VALID,19.3143,VALID,116,VALID,0,
2013-10-13, 00:20:05,VALID,918.327,VALID,0,VALID,96.7183,VALID,0,VALID,19.3143,VALID,116,VALID,0,
2013-10-13, 00:21:05,VALID,918.285,VALID,0,VALID,96.7183,VALID,0,VALID,19.2933,VALID,116,VALID,0,
2013-10-13, 00:22:05,VALID,918.266,VALID,0,VALID,96.7335,VALID,0,VALID,19.3143,VALID,109,VALID,0,
2013-10-13, 00:23:05,VALID,918.266,VALID,0,VALID,96.7411,VALID,0,VALID,19.2948,VALID,111,VALID,0,
2013-10-13, 00:24:05,VALID,918.26,VALID,0,VALID,96.7259,VALID,0,VALID,19.3143,VALID,115,VALID,0,
2013-10-13, 00:25:05,VALID,918.237,VALID,0,VALID,96.7411,VALID,0,VALID,19.2948,VALID,116,VALID,0,
2013-10-13, 00:26:05,VALID,918.215,VALID,0,VALID,96.764,VALID,0,VALID,19.2753,VALID,115,VALID,0,
2013-10-13, 00:27:05,VALID,918.194,VALID,0,VALID,96.7564,VALID,0,VALID,19.2948,VALID,115,VALID,0,
2013-10-13, 00:28:05,VALID,918.187,VALID,0,VALID,96.7716,VALID,0,VALID,19.2948,VALID,115,VALID,0,
2013-10-13, 00:29:05,VALID,918.167,VALID,0,VALID,96.764,VALID,0,VALID,19.2948,VALID,115,VALID,0,
2013-10-13, 00:30:05,VALID,918.129,VALID,0,VALID,96.7564,VALID,0,VALID,19.2948,VALID,115,VALID,0,
2013-10-13, 00:31:05,VALID,918.139,VALID,0,VALID,96.7564,VALID,0,VALID,19.2948,VALID,115,VALID,0,
2013-10-13, 00:32:05,VALID,918.123,VALID,0,VALID,96.764,VALID,0,VALID,19.2543,VALID,111,VALID,0,
2013-10-13, 00:33:05,VALID,918.099,VALID,0,VALID,96.764,VALID,0,VALID,19.2948,VALID,110,VALID,0,
2013-10-13, 00:34:05,VALID,918.08,VALID,0,VALID,96.7945,VALID,0,VALID,19.2558,VALID,110,VALID,0,
2013-10-13, 00:35:05,VALID,918.071,VALID,0,VALID,96.7793,VALID,0,VALID,19.2348,VALID,110,VALID,0,
2013-10-13, 00:36:05,VALID,918.091,VALID,0,VALID,96.7945,VALID,0,VALID,19.2348,VALID,110,VALID,0,
2013-10-13, 00:37:05,VALID,918.06,VALID,0,VALID,96.7945,VALID,0,VALID,19.2363,VALID,110,VALID,0,
2013-10-13, 00:38:05,VALID,918.066,VALID,0,VALID,96.8098,VALID,0,VALID,19.1958,VALID,111,VALID,0,
2013-10-13, 00:39:05,VALID,918.014,VALID,0,VALID,96.7945,VALID,0,VALID,19.2168,VALID,110,VALID,0,
2013-10-13, 00:40:05,VALID,918.006,VALID,0,VALID,96.8021,VALID,0,VALID,19.2168,VALID,110,VALID,0,
2013-10-13, 00:41:05,VALID,917.986,VALID,0,VALID,96.8098,VALID,0,VALID,19.1763,VALID,111,VALID,0,
2013-10-13, 00:42:05,VALID,917.919,VALID,0,VALID,96.825,VALID,0,VALID,19.1958,VALID,111,VALID,0,
2013-10-13, 00:43:05,VALID,917.93,VALID,0,VALID,96.8174,VALID,0,VALID,19.1973,VALID,111,VALID,0,
2013-10-13, 00:44:05,VALID,917.887,VALID,0,VALID,96.825,VALID,0,VALID,19.1973,VALID,110,VALID,0,
2013-10-13, 00:45:05,VALID,917.863,VALID,0,VALID,96.825,VALID,0,VALID,19.2168,VALID,111,VALID,0,
2013-10-13, 00:46:05,VALID,917.805,VALID,0,VALID,96.8326,VALID,0,VALID,19.2168,VALID,111,VALID,0,
2013-10-13, 00:47:05,VALID,917.815,VALID,0,VALID,96.825,VALID,0,VALID,19.1973,VALID,112,VALID,0,
2013-10-13, 00:48:05,VALID,917.8,VALID,0,VALID,96.825,VALID,0,VALID,19.2168,VALID,113,VALID,0,
2013-10-13, 00:49:05,VALID,917.792,VALID,0,VALID,96.825,VALID,0,VALID,19.2363,VALID,113,VALID,0,
2013-10-13, 00:50:05,VALID,917.776,VALID,0,VALID,96.8403,VALID,0,VALID,19.2363,VALID,113,VALID,0,
2013-10-13, 00:51:05,VALID,917.743,VALID,0,VALID,96.825,VALID,0,VALID,19.1958,VALID,121,VALID,0,
2013-10-13, 00:52:05,VALID,917.68,VALID,0,VALID,96.8174,VALID,0,VALID,19.1958,VALID,125,VALID,0,
2013-10-13, 00:53:05,VALID,917.655,VALID,0,VALID,96.8479,VALID,0,VALID,19.2153,VALID,143,VALID,0,
2013-10-13, 00:54:05,VALID,917.612,VALID,0,VALID,96.8403,VALID,0,VALID,19.2363,VALID,142,VALID,0,
2013-10-13, 00:55:05,VALID,917.592,VALID,0,VALID,96.825,VALID,0,VALID,19.2168,VALID,132,VALID,0,
2013-10-13, 00:56:05,VALID,917.551,VALID,0,VALID,96.825,VALID,0,VALID,19.2363,VALID,132,VALID,0,
2013-10-13, 00:57:05,VALID,917.52,VALID,0,VALID,96.8555,VALID,0,VALID,19.2168,VALID,129,VALID,0,
2013-10-13, 00:58:05,VALID,917.536,VALID,0,VALID,96.8326,VALID,0,VALID,19.2168,VALID,123,VALID,0,
2013-10-13, 00:59:05,VALID,917.522,VALID,0,VALID,96.8174,VALID,0,VALID,19.2168,VALID,115,VALID,0,
2013-10-13, 01:00:05,VALID,917.527,VALID,0,VALID,96.825,VALID,0,VALID,19.2168,VALID,114,VALID,0,
2013-10-13, 01:01:05,VALID,917.484,VALID,0,VALID,96.8174,VALID,0,VALID,19.2168,VALID,115,VALID,0,
2013-10-13, 01:02:05,VALID,917.501,VALID,0,VALID,96.8326,VALID,0,VALID,19.1763,VALID,115,VALID,0,
2013-10-13, 01:03:05,VALID,917.478,VALID,0,VALID,96.8326,VALID,0,VALID,19.1973,VALID,114,VALID,0,
2013-10-13, 01:04:05,VALID,917.468,VALID,0,VALID,96.8098,VALID,0,VALID,19.1763,VALID,114,VALID,0,
2013-10-13, 01:05:05,VALID,917.443,VALID,0,VALID,96.8098,VALID,0,VALID,19.1763,VALID,112,VALID,0,
2013-10-13, 01:06:05,VALID,917.459,VALID,0,VALID,96.8098,VALID,0,VALID,19.1778,VALID,112,VALID,0,
2013-10-13, 01:07:05,VALID,917.453,VALID,0,VALID,96.8098,VALID,0,VALID,19.1778,VALID,111,VALID,0,
2013-10-13, 01:08:05,VALID,917.46,VALID,0,VALID,96.7793,VALID,0,VALID,19.1778,VALID,112,VALID,0,
2013-10-13, 01:09:05,VALID,917.47,VALID,0,VALID,96.7716,VALID,0,VALID,19.1583,VALID,99,VALID,0,
2013-10-13, 01:10:05,VALID,917.434,VALID,0,VALID,96.8021,VALID,0,VALID,19.1778,VALID,100,VALID,0,
2013-10-13, 01:11:05,VALID,917.421,VALID,0,VALID,96.7793,VALID,0,VALID,19.1778,VALID,99,VALID,0,
2013-10-13, 01:12:05,VALID,917.392,VALID,0,VALID,96.7716,VALID,0,VALID,19.1778,VALID,99,VALID,0,
2013-10-13, 01:13:05,VALID,917.417,VALID,0,VALID,96.7716,VALID,0,VALID,19.1973,VALID,99,VALID,0,
2013-10-13, 01:14:05,VALID,917.432,VALID,0,VALID,96.7564,VALID,0,VALID,19.1778,VALID,99,VALID,0,
2013-10-13, 01:15:05,VALID,917.409,VALID,0,VALID,96.7716,VALID,0,VALID,19.1763,VALID,99,VALID,0,
2013-10-13, 01:16:05,VALID,917.423,VALID,0,VALID,96.7716,VALID,0,VALID,19.1973,VALID,99,VALID,0,
2013-10-13, 01:17:05,VALID,917.439,VALID,0,VALID,96.7488,VALID,0,VALID,19.2168,VALID,100,VALID,0,
2013-10-13, 01:18:05,VALID,917.452,VALID,0,VALID,96.7488,VALID,0,VALID,19.2168,VALID,99,VALID,0,
2013-10-13, 01:19:05,VALID,917.45,VALID,0,VALID,96.7411,VALID,0,VALID,19.2348,VALID,99,VALID,0,
2013-10-13, 01:20:05,VALID,917.445,VALID,0,VALID,96.7259,VALID,0,VALID,19.2558,VALID,99,VALID,0,
2013-10-13, 01:21:05,VALID,917.426,VALID,0,VALID,96.7107,VALID,0,VALID,19.2543,VALID,100,VALID,0,
2013-10-13, 01:22:05,VALID,917.432,VALID,0,VALID,96.7107,VALID,0,VALID,19.2543,VALID,100,VALID,0,
2013-10-13, 01:23:05,VALID,917.388,VALID,0,VALID,96.6954,VALID,0,VALID,19.2738,VALID,100,VALID,0,
2013-10-13, 01:24:05,VALID,917.387,VALID,0,VALID,96.7107,VALID,0,VALID,19.2753,VALID,100,VALID,0,
2013-10-13, 01:25:05,VALID,917.359,VALID,0,VALID,96.703,VALID,0,VALID,19.2738,VALID,100,VALID,0,
2013-10-13, 01:26:05,VALID,917.352,VALID,0,VALID,96.703,VALID,0,VALID,19.2543,VALID,100,VALID,0,
2013-10-13, 01:27:05,VALID,917.367,VALID,0,VALID,96.6878,VALID,0,VALID,19.2543,VALID,99,VALID,0,
2013-10-13, 01:28:05,VALID,917.378,VALID,0,VALID,96.6954,VALID,0,VALID,19.2753,VALID,100,VALID,0,
2013-10-13, 01:29:05,VALID,917.351,VALID,0,VALID,96.6878,VALID,0,VALID,19.2753,VALID,100,VALID,0,
2013-10-13, 01:30:05,VALID,917.335,VALID,0,VALID,96.6802,VALID,0,VALID,19.2753,VALID,100,VALID,0,
2013-10-13, 01:31:05,VALID,917.336,VALID,0,VALID,96.6802,VALID,0,VALID,19.2363,VALID,100,VALID,0,
2013-10-13, 01:32:05,VALID,917.323,VALID,0,VALID,96.6725,VALID,0,VALID,19.2168,VALID,100,VALID,0,
2013-10-13, 01:33:05,VALID,917.334,VALID,0,VALID,96.6725,VALID,0,VALID,19.1973,VALID,99,VALID,0,
2013-10-13, 01:34:05,VALID,917.324,VALID,0,VALID,96.6649,VALID,0,VALID,19.1583,VALID,100,VALID,0,
2013-10-13, 01:35:05,VALID,917.285,VALID,0,VALID,96.642,VALID,0,VALID,19.1178,VALID,100,VALID,0,
2013-10-13, 01:36:05,VALID,917.284,VALID,0,VALID,96.6649,VALID,0,VALID,19.0788,VALID,100,VALID,0,
2013-10-13, 01:37:05,VALID,917.302,VALID,0,VALID,96.6573,VALID,0,VALID,19.0593,VALID,100,VALID,0,
2013-10-13, 01:38:05,VALID,917.294,VALID,0,VALID,96.6573,VALID,0,VALID,19.0803,VALID,100,VALID,0,
2013-10-13, 01:39:05,VALID,917.304,VALID,0,VALID,96.6573,VALID,0,VALID,19.0398,VALID,100,VALID,0,
2013-10-13, 01:40:05,VALID,917.292,VALID,0,VALID,96.6649,VALID,0,VALID,19.0608,VALID,100,VALID,0,
2013-10-13, 01:41:05,VALID,917.31,VALID,0,VALID,96.6802,VALID,0,VALID,19.0593,VALID,100,VALID,0,
2013-10-13, 01:42:05,VALID,917.289,VALID,0,VALID,96.6725,VALID,0,VALID,19.0593,VALID,100,VALID,0,
2013-10-13, 01:43:05,VALID,917.273,VALID,0,VALID,96.6725,VALID,0,VALID,19.0608,VALID,100,VALID,0,
2013-10-13, 01:44:05,VALID,917.265,VALID,0,VALID,96.6725,VALID,0,VALID,19.0398,VALID,100,VALID,0,
2013-10-13, 01:45:05,VALID,917.251,VALID,0,VALID,96.6802,VALID,0,VALID,19.0608,VALID,100,VALID,0,
2013-10-13, 01:46:05,VALID,917.258,VALID,0,VALID,96.6725,VALID,0,VALID,19.0803,VALID,99,VALID,0,
2013-10-13, 01:47:05,VALID,917.269,VALID,0,VALID,96.6649,VALID,0,VALID,19.0608,VALID,100,VALID,0,
2013-10-13, 01:48:05,VALID,917.298,VALID,0,VALID,96.6802,VALID,0.107441,VALID,19.0398,VALID,100,VALID,0,
2013-10-13, 01:49:05,VALID,917.275,VALID,0,VALID,96.6878,VALID,0.107441,VALID,19.0593,VALID,100,VALID,0,
2013-10-13, 01:50:05,VALID,917.292,VALID,0,VALID,96.6802,VALID,0,VALID,19.0788,VALID,100,VALID,0,
2013-10-13, 01:51:05,VALID,917.281,VALID,0,VALID,96.6878,VALID,0.107441,VALID,19.0788,VALID,100,VALID,0,
2013-10-13, 01:52:05,VALID,917.279,VALID,0,VALID,96.6954,VALID,0.107441,VALID,19.0788,VALID,99,VALID,0,
2013-10-13, 01:53:05,VALID,917.248,VALID,0,VALID,96.6954,VALID,0,VALID,19.0788,VALID,100,VALID,0,
2013-10-13, 01:54:05,VALID,917.247,VALID,0,VALID,96.6954,VALID,0.107441,VALID,19.0788,VALID,101,VALID,0,
2013-10-13, 01:55:05,VALID,917.272,VALID,0,VALID,96.6802,VALID,0,VALID,19.0398,VALID,108,VALID,0,
2013-10-13, 01:56:05,VALID,917.234,VALID,0,VALID,96.6725,VALID,0.107441,VALID,19.0398,VALID,109,VALID,0,
2013-10-13, 01:57:05,VALID,917.248,VALID,0,VALID,96.6649,VALID,0.107441,VALID,19.0398,VALID,111,VALID,0,
2013-10-13, 01:58:05,VALID,917.261,VALID,0,VALID,96.6878,VALID,0.107441,VALID,19.0203,VALID,99,VALID,0,
2013-10-13, 01:59:05,VALID,917.246,VALID,0,VALID,96.6802,VALID,0.107441,VALID,19.0203,VALID,113,VALID,0,
2013-10-13, 02:00:05,VALID,917.232,VALID,0,VALID,96.703,VALID,0,VALID,19.0398,VALID,116,VALID,0,
2013-10-13, 02:01:05,VALID,917.212,VALID,0,VALID,96.6878,VALID,0,VALID,19.0203,VALID,121,VALID,0,
2013-10-13, 02:02:05,VALID,917.239,VALID,0,VALID,96.6954,VALID,0,VALID,19.0203,VALID,124,VALID,0,
2013-10-13, 02:03:05,VALID,917.214,VALID,0,VALID,96.6802,VALID,0,VALID,19.0398,VALID,127,VALID,0,
2013-10-13, 02:04:05,VALID,917.213,VALID,0,VALID,96.6954,VALID,0,VALID,19.0413,VALID,126,VALID,0,
2013-10-13, 02:05:05,VALID,917.224,VALID,0,VALID,96.703,VALID,0.107441,VALID,19.0398,VALID,136,VALID,0,
2013-10-13, 02:06:05,VALID,917.185,VALID,0,VALID,96.7107,VALID,0.107441,VALID,19.0189,VALID,137,VALID,0,
2013-10-13, 02:07:05,VALID,917.206,VALID,0,VALID,96.6878,VALID,0.107441,VALID,19.0593,VALID,149,VALID,0,
2013-10-13, 02:08:05,VALID,917.151,VALID,0,VALID,96.6954,VALID,0.107441,VALID,19.0788,VALID,135,VALID,0,
2013-10-13, 02:09:05,VALID,917.139,VALID,0,VALID,96.6802,VALID,0,VALID,19.0593,VALID,133,VALID,0,
2013-10-13, 02:10:05,VALID,917.132,VALID,0,VALID,96.6725,VALID,0,VALID,19.0788,VALID,133,VALID,0,
2013-10-13, 02:11:05,VALID,917.135,VALID,0,VALID,96.6802,VALID,0,VALID,19.0788,VALID,138,VALID,0,
2013-10-13, 02:12:05,VALID,917.119,VALID,0,VALID,96.6802,VALID,0.107441,VALID,19.1178,VALID,148,VALID,0,
2013-10-13, 02:13:05,VALID,917.106,VALID,0,VALID,96.6725,VALID,0.107441,VALID,19.0983,VALID,142,VALID,0,
2013-10-13, 02:14:05,VALID,917.103,VALID,0,VALID,96.6573,VALID,0,VALID,19.0788,VALID,142,VALID,0,
2013-10-13, 02:15:05,VALID,917.112,VALID,0,VALID,96.6573,VALID,0.107441,VALID,19.0983,VALID,142,VALID,0,
2013-10-13, 02:16:05,VALID,917.089,VALID,0,VALID,96.6192,VALID,0,VALID,19.0983,VALID,146,VALID,0,
2013-10-13, 02:17:05,VALID,917.112,VALID,0,VALID,96.6192,VALID,0,VALID,19.0788,VALID,148,VALID,0,
2013-10-13, 02:18:05,VALID,917.071,VALID,0,VALID,96.6039,VALID,0.107441,VALID,19.0788,VALID,133,VALID,0,
2013-10-13, 02:19:05,VALID,917.071,VALID,0,VALID,96.6115,VALID,0.107441,VALID,19.0788,VALID,123,VALID,0,
2013-10-13, 02:20:05,VALID,917.076,VALID,0,VALID,96.6039,VALID,0,VALID,19.0593,VALID,126,VALID,0,
2013-10-13, 02:21:05,VALID,917.067,VALID,0,VALID,96.6192,VALID,0.107441,VALID,19.0788,VALID,136,VALID,0,
2013-10-13, 02:22:05,VALID,917.078,VALID,0,VALID,96.6268,VALID,0.107441,VALID,19.0788,VALID,136,VALID,0,
2013-10-13, 02:23:05,VALID,917.095,VALID,0,VALID,96.6268,VALID,0.107441,VALID,19.0788,VALID,121,VALID,0,
2013-10-13, 02:24:05,VALID,917.092,VALID,0,VALID,96.6344,VALID,0,VALID,19.0788,VALID,120,VALID,0,
2013-10-13, 02:25:05,VALID,917.112,VALID,0,VALID,96.6344,VALID,0.107441,VALID,19.0593,VALID,116,VALID,0,
2013-10-13, 02:26:05,VALID,917.109,VALID,0,VALID,96.6573,VALID,0.107441,VALID,19.0998,VALID,133,VALID,0,
2013-10-13, 02:27:05,VALID,917.098,VALID,0,VALID,96.6573,VALID,0.107441,VALID,19.0593,VALID,133,VALID,0,
2013-10-13, 02:28:05,VALID,917.085,VALID,0,VALID,96.6725,VALID,0,VALID,19.0398,VALID,124,VALID,0,
2013-10-13, 02:29:05,VALID,917.098,VALID,0,VALID,96.6802,VALID,0,VALID,19.0398,VALID,131,VALID,0,
2013-10-13, 02:30:05,VALID,917.076,VALID,0,VALID,96.6878,VALID,0.107441,VALID,19.0398,VALID,139,VALID,0,
2013-10-13, 02:31:05,VALID,917.054,VALID,0,VALID,96.6954,VALID,0.107441,VALID,19.0203,VALID,151,VALID,0,
2013-10-13, 02:32:05,VALID,917.041,VALID,0,VALID,96.6954,VALID,0,VALID,19.0398,VALID,128,VALID,0,
2013-10-13, 02:33:05,VALID,917.056,VALID,0,VALID,96.7107,VALID,0,VALID,19.0189,VALID,116,VALID,0,
2013-10-13, 02:34:05,VALID,917.039,VALID,0,VALID,96.7183,VALID,0,VALID,19.0398,VALID,138,VALID,0,
2013-10-13, 02:35:05,VALID,917.004,VALID,0,VALID,96.7335,VALID,0,VALID,19.0398,VALID,138,VALID,0,
2013-10-13, 02:36:05,VALID,917.005,VALID,0,VALID,96.7259,VALID,0,VALID,19.0008,VALID,137,VALID,0,
2013-10-13, 02:37:05,VALID,917.03,VALID,0,VALID,96.7259,VALID,0,VALID,19.0203,VALID,137,VALID,0,
2013-10-13, 02:38:05,VALID,917.034,VALID,0,VALID,96.7335,VALID,0.107441,VALID,18.9994,VALID,137,VALID,0,
2013-10-13, 02:39:05,VALID,917.008,VALID,0,VALID,96.7488,VALID,0,VALID,19.0203,VALID,136,VALID,0,
2013-10-13, 02:40:05,VALID,917.024,VALID,0,VALID,96.7488,VALID,0.107441,VALID,19.0413,VALID,138,VALID,0,
2013-10-13, 02:41:04,VALID,917.028,VALID,0,VALID,96.7564,VALID,0,VALID,19.0189,VALID,138,VALID,0,
2013-10-13, 02:42:04,VALID,917.031,VALID,0,VALID,96.764,VALID,0,VALID,19.0593,VALID,138,VALID,0,
2013-10-13, 02:43:04,VALID,917.046,VALID,0,VALID,96.764,VALID,0.107441,VALID,19.0398,VALID,147,VALID,0,
2013-10-13, 02:44:04,VALID,917.015,VALID,0,VALID,96.764,VALID,0,VALID,19.0008,VALID,141,VALID,0,
2013-10-13, 02:45:04,VALID,916.998,VALID,0,VALID,96.764,VALID,0,VALID,19.0008,VALID,137,VALID,0,
2013-10-13, 02:46:04,VALID,917.059,VALID,0,VALID,96.7564,VALID,0,VALID,18.9814,VALID,136,VALID,0,
2013-10-13, 02:47:04,VALID,917.054,VALID,0,VALID,96.7488,VALID,0.107441,VALID,18.9604,VALID,143,VALID,0,
2013-10-13, 02:48:04,VALID,917.061,VALID,0,VALID,96.7716,VALID,0,VALID,18.9828,VALID,155,VALID,0,
2013-10-13, 02:49:04,VALID,917.083,VALID,0,VALID,96.7564,VALID,0,VALID,19.0023,VALID,148,VALID,0,
2013-10-13, 02:50:04,VALID,917.048,VALID,0,VALID,96.7488,VALID,0,VALID,19.0023,VALID,136,VALID,0,
2013-10-13, 02:51:04,VALID,917.051,VALID,0,VALID,96.7716,VALID,0,VALID,19.0023,VALID,131,VALID,0,
2013-10-13, 02:52:04,VALID,917.063,VALID,0,VALID,96.764,VALID,0,VALID,19.0023,VALID,129,VALID,0,
2013-10-13, 02:53:04,VALID,917.044,VALID,0,VALID,96.764,VALID,0,VALID,18.9828,VALID,153,VALID,0,
2013-10-13, 02:54:04,VALID,917.066,VALID,0,VALID,96.7945,VALID,0,VALID,18.9828,VALID,134,VALID,0,
2013-10-13, 02:55:04,VALID,917.075,VALID,0,VALID,96.7945,VALID,0,VALID,18.9828,VALID,140,VALID,0,
2013-10-13, 02:56:04,VALID,917.072,VALID,0,VALID,96.7869,VALID,0,VALID,18.9438,VALID,113,VALID,0,
2013-10-13, 02:57:04,VALID,917.059,VALID,0,VALID,96.7945,VALID,0,VALID,18.9438,VALID,146,VALID,0,
2013-10-13, 02:58:04,VALID,917.075,VALID,0,VALID,96.7869,VALID,0,VALID,18.9438,VALID,149,VALID,0,
2013-10-13, 02:59:04,VALID,917.073,VALID,0,VALID,96.8021,VALID,0,VALID,18.9243,VALID,143,VALID,0,
2013-10-13, 03:00:04,VALID,917.059,VALID,0,VALID,96.8021,VALID,0,VALID,18.9452,VALID,139,VALID,0,
2013-10-13, 03:01:04,VALID,917.058,VALID,0,VALID,96.7869,VALID,0,VALID,18.9243,VALID,149,VALID,0,
2013-10-13, 03:02:04,VALID,917.082,VALID,0,VALID,96.8098,VALID,0,VALID,18.9048,VALID,155,VALID,0,
2013-10-13, 03:03:04,VALID,917.046,VALID,0,VALID,96.7716,VALID,0.107441,VALID,18.9243,VALID,130,VALID,0,
2013-10-13, 03:04:04,VALID,917.049,VALID,0,VALID,96.7869,VALID,0,VALID,18.9229,VALID,147,VALID,0,
2013-10-13, 03:05:04,VALID,917.012,VALID,0,VALID,96.7793,VALID,0,VALID,18.9243,VALID,144,VALID,0,
2013-10-13, 03:06:04,VALID,917.019,VALID,0,VALID,96.7793,VALID,0,VALID,18.9229,VALID,141,VALID,0,
2013-10-13, 03:07:04,VALID,917.039,VALID,0,VALID,96.7945,VALID,0,VALID,18.9424,VALID,139,VALID,0,
2013-10-13, 03:08:04,VALID,917.012,VALID,0,VALID,96.7564,VALID,0,VALID,18.9424,VALID,136,VALID,0,
2013-10-13, 03:09:04,VALID,917.018,VALID,0,VALID,96.7488,VALID,0,VALID,18.9229,VALID,134,VALID,0,
2013-10-13, 03:10:04,VALID,916.992,VALID,0,VALID,96.7564,VALID,0,VALID,18.9034,VALID,131,VALID,0,
2013-10-13, 03:11:04,VALID,916.972,VALID,0,VALID,96.7564,VALID,0,VALID,18.9034,VALID,117,VALID,0,
2013-10-13, 03:12:04,VALID,917.014,VALID,0,VALID,96.7411,VALID,0,VALID,18.8839,VALID,127,VALID,0,
2013-10-13, 03:13:04,VALID,916.988,VALID,0,VALID,96.7183,VALID,0,VALID,18.8644,VALID,100,VALID,0,
2013-10-13, 03:14:04,VALID,917.022,VALID,0,VALID,96.7335,VALID,0,VALID,18.8449,VALID,113,VALID,0,
2013-10-13, 03:15:04,VALID,917.009,VALID,0,VALID,96.7107,VALID,0,VALID,18.8449,VALID,117,VALID,0,
2013-10-13, 03:16:04,VALID,916.995,VALID,0,VALID,96.7107,VALID,0,VALID,18.8449,VALID,106,VALID,0,
2013-10-13, 03:17:04,VALID,916.979,VALID,0,VALID,96.7259,VALID,0.107441,VALID,18.8434,VALID,105,VALID,0,
2013-10-13, 03:18:04,VALID,916.995,VALID,0,VALID,96.703,VALID,0,VALID,18.8477,VALID,120,VALID,0,
2013-10-13, 03:19:04,VALID,916.983,VALID,0,VALID,96.7183,VALID,0,VALID,18.8463,VALID,123,VALID,0,
2013-10-13, 03:20:04,VALID,916.986,VALID,0,VALID,96.7259,VALID,0,VALID,18.8658,VALID,129,VALID,0,
2013-10-13, 03:21:04,VALID,916.979,VALID,0,VALID,96.7259,VALID,0,VALID,18.8658,VALID,129,VALID,0,
2013-10-13, 03:22:04,VALID,916.984,VALID,0,VALID,96.7183,VALID,0,VALID,18.8463,VALID,126,VALID,0,
2013-10-13, 03:23:04,VALID,916.994,VALID,0,VALID,96.7183,VALID,0,VALID,18.8672,VALID,91,VALID,0,
2013-10-13, 03:24:04,VALID,916.992,VALID,0,VALID,96.7411,VALID,0,VALID,18.8463,VALID,109,VALID,0,
2013-10-13, 03:25:04,VALID,916.98,VALID,0,VALID,96.7107,VALID,0,VALID,18.8463,VALID,103,VALID,0,
2013-10-13, 03:26:04,VALID,917.007,VALID,0,VALID,96.7259,VALID,0,VALID,18.8463,VALID,84,VALID,0,
2013-10-13, 03:27:04,VALID,916.981,VALID,0,VALID,96.7411,VALID,0,VALID,18.8463,VALID,133,VALID,0,
2013-10-13, 03:28:04,VALID,916.979,VALID,0,VALID,96.703,VALID,0,VALID,18.8463,VALID,124,VALID,0,
2013-10-13, 03:29:04,VALID,916.995,VALID,0,VALID,96.7107,VALID,0,VALID,18.8463,VALID,134,VALID,0,
2013-10-13, 03:30:04,VALID,917.008,VALID,0,VALID,96.7107,VALID,0,VALID,18.8268,VALID,126,VALID,0,
2013-10-13, 03:31:04,VALID,916.985,VALID,0,VALID,96.6954,VALID,0,VALID,18.8268,VALID,137,VALID,0,
2013-10-13, 03:32:04,VALID,916.95,VALID,0,VALID,96.703,VALID,0,VALID,18.8268,VALID,137,VALID,0,
2013-10-13, 03:33:04,VALID,916.955,VALID,0,VALID,96.6649,VALID,0,VALID,18.8268,VALID,134,VALID,0,
2013-10-13, 03:34:04,VALID,916.953,VALID,0,VALID,96.6649,VALID,0,VALID,18.8268,VALID,105,VALID,0,
2013-10-13, 03:35:04,VALID,916.942,VALID,0,VALID,96.6497,VALID,0,VALID,18.8463,VALID,130,VALID,0,
2013-10-13, 03:36:04,VALID,916.918,VALID,0,VALID,96.6115,VALID,0,VALID,18.8463,VALID,125,VALID,0,
2013-10-13, 03:37:04,VALID,916.893,VALID,0,VALID,96.5963,VALID,0,VALID,18.8463,VALID,116,VALID,0,
2013-10-13, 03:38:04,VALID,916.885,VALID,0,VALID,96.5277,VALID,0,VALID,18.8672,VALID,122,VALID,0,
2013-10-13, 03:39:04,VALID,916.859,VALID,0,VALID,96.4972,VALID,0,VALID,18.8463,VALID,115,VALID,0,
2013-10-13, 03:40:04,VALID,916.839,VALID,0,VALID,96.4667,VALID,0,VALID,18.8463,VALID,106,VALID,0,
2013-10-13, 03:41:04,VALID,916.824,VALID,0,VALID,96.4286,VALID,0,VALID,18.8268,VALID,109,VALID,0,
2013-10-13, 03:42:04,VALID,916.825,VALID,0,VALID,96.4133,VALID,0,VALID,18.8268,VALID,107,VALID,0,
2013-10-13, 03:43:04,VALID,916.833,VALID,0,VALID,96.36,VALID,0,VALID,18.8073,VALID,93,VALID,0,
2013-10-13, 03:44:04,VALID,916.823,VALID,0,VALID,96.3371,VALID,0,VALID,18.8073,VALID,104,VALID,0,
2013-10-13, 03:45:04,VALID,916.806,VALID,0,VALID,96.3066,VALID,0,VALID,18.7878,VALID,74,VALID,0,
2013-10-13, 03:46:04,VALID,916.814,VALID,0,VALID,96.2837,VALID,0,VALID,18.7892,VALID,97,VALID,0,
2013-10-13, 03:47:04,VALID,916.804,VALID,0,VALID,96.238,VALID,0,VALID,18.7683,VALID,97,VALID,0,
2013-10-13, 03:48:04,VALID,916.823,VALID,0,VALID,96.2609,VALID,0,VALID,18.7279,VALID,98,VALID,0,
2013-10-13, 03:49:04,VALID,916.82,VALID,0,VALID,96.2304,VALID,0.107441,VALID,18.7474,VALID,98,VALID,0,
2013-10-13, 03:50:04,VALID,916.827,VALID,0,VALID,96.2304,VALID,0,VALID,18.7279,VALID,98,VALID,0,
2013-10-13, 03:51:04,VALID,916.819,VALID,0,VALID,96.1923,VALID,0,VALID,18.7279,VALID,97,VALID,0,
2013-10-13, 03:52:04,VALID,916.832,VALID,0,VALID,96.177,VALID,0,VALID,18.6889,VALID,97,VALID,0,
2013-10-13, 03:53:04,VALID,916.789,VALID,0,VALID,96.1541,VALID,0,VALID,18.6694,VALID,98,VALID,0,
2013-10-13, 03:54:04,VALID,916.805,VALID,0,VALID,96.1541,VALID,0,VALID,18.6694,VALID,98,VALID,0,
2013-10-13, 03:55:04,VALID,916.796,VALID,0,VALID,96.1389,VALID,0,VALID,18.6499,VALID,98,VALID,0,
2013-10-13, 03:56:04,VALID,916.789,VALID,0,VALID,96.1236,VALID,0,VALID,18.6499,VALID,97,VALID,0,
2013-10-13, 03:57:04,VALID,916.777,VALID,0,VALID,96.1389,VALID,0.107441,VALID,18.6513,VALID,99,VALID,0,